STARLINK-11355 [DTC]

Last updated on Thu Jan 23 2025 00:02:04 GMT+0000 (Coordinated Universal Time)

1 62415U 24249G 25022.48074399 -.00007924 00000+0 -42740-4 0 9998 2 62415 42.9966 127.5961 0001456 256.4076 103.6632 15.77842690 4793
UTC large
Height (km)
Speed (km/s)
/
Latitude / Longitude
Inclination (degrees)
Orbital Period (minutes)
Azimuth
Elevation
Range (km)
Doppler Factor

Next 0 passes for location: London (51.5072 / 0.1276)

Sorry there are no passes over London.